Content
SEND FEEDBACK

Daily
Averages
Monthly
Summary
United States of America

NEW YORK - CENTRAL PARK, NEW YORK


Home > North America > United States > New York
Elevation: 4 meters     Latitude: 40 47N     Longitude: 073 58W

WEATHER
 
SELECT A DAY
Number of Records: 148,168;   Date Range: 11/1/95 - 8/12/14
 
SHARE

PRINT THIS DATA

[ ← Previous Day ]
WEATHER ALMANAC - 8 SEPTEMBER, 2013
[ Next Day → ]
[ °F ]   °C
Weather ElementAverageHighLow
Temperature20.8 °C27.2 °C (12:51 pm) (11:51 am)
Dewpoint9.6 °C15.6 °C (12:51 pm) (7:00 pm)
Humidity48.9 %63 % (5:51 am)28 % (6:51 pm)
Barometer1012.5 hPa1019 hPa (11:51 pm)1010.2 hPa (10:51 am)
Wind Speed10.1 km/h18.5 km/h (8:51 pm)
Wind Gust35.2 km/h (2:51 pm)
Weather ElementAverage
Visibility16.1 km
Wind DirectionE (86.1 °)

Weather ElementTotal
Precipitation---
Heating Degree Days13.6 (Base 18.3)
Averaged from 23 records on 8 September, 2013
WEATHER CONDITIONS BREAKOUT
WIND DIRECTION BREAKOUT
WEATHER BY HOUR - 8 SEPTEMBER, 2013
[ °F ]   °C
Local TimeTemperatureDewpointHumidityBarometerVisibilityWind DirectionWind SpeedGust SpeedPrecipitationEventsConditions
1:51 AM21.7 °C11.1 °C51 %1012.2 hPa16.1 kmNorthOvercast
2:51 AM20.6 °C12.2 °C58 %1011.9 hPa16.1 kmWSW (250°)9.3 km/h0 mmOvercast
3:51 AM20.6 °C12.8 °C61 %1011.2 hPa16.1 kmVariable9.3 km/hMostly Cloudy
4:51 AM20 °C12.2 °C61 %1010.5 hPa16.1 kmVariable5.6 km/hPartly Cloudy
5:51 AM20 °C12.8 °C63 %1010.5 hPa16.1 kmVariable5.6 km/hScattered Clouds
6:51 AM20 °C12.8 °C63 %1010.5 hPa16.1 kmVariable7.4 km/hMostly Cloudy
7:51 AM20.6 °C12.8 °C61 %1010.8 hPa16.1 kmVariable9.3 km/hMostly Cloudy
8:51 AM21.1 °C13.3 °C61 %1010.5 hPa16.1 kmVariable5.6 km/hPartly Cloudy
9:51 AM22.8 °C14.4 °C59 %1010.8 hPa16.1 kmNorthClear
10:51 AM24.4 °C15 °C56 %1010.2 hPa16.1 kmVariable9.3 km/hClear
11:51 AM-17.8 °C-17.8 °C1010.2 hPa16.1 kmWNW (300°)11.1 km/h25.9 km/hPartly Cloudy
12:51 PM27.2 °C15.6 °C49 %1010.2 hPa16.1 kmVariable7.4 km/hMostly Cloudy
1:51 PM26.7 °C15 °C48 %1010.2 hPa16.1 kmVariable7.4 km/hMostly Cloudy
2:51 PM26.7 °C12.8 °C42 %1010.5 hPa16.1 kmNW (310°)14.8 km/h35.2 km/hMostly Cloudy
3:51 PM26.7 °C12.2 °C40 %1011.2 hPa16.1 kmNorth (360°)14.8 km/hScattered Clouds
4:51 PM26.1 °C10.6 °C38 %1011.5 hPa16.1 kmNW (310°)13 km/h31.5 km/hClear
5:51 PM25.6 °C6.1 °C29 %1012.9 hPa16.1 kmNorth (350°)13 km/hClear
6:51 PM23.9 °C4.4 °C28 %1013.9 hPa16.1 kmVariable9.3 km/hClear
7:51 PM22.8 °C5 °C31 %1014.9 hPa16.1 kmVariable5.6 km/hClear
8:51 PM21.1 °C7.2 °C41 %1016.6 hPa16.1 kmNE (50°)18.5 km/hClear
9:51 PM20 °C6.7 °C42 %1017.3 hPa16.1 kmVariable7.4 km/hClear
10:51 PM18.9 °C7.2 °C47 %1018.3 hPa16.1 kmVariable11.1 km/hClear
11:51 PM18.3 °C6.7 °C47 %1019 hPa16.1 kmNE (50°)16.7 km/h27.8 km/hClear
Hourly data recorded from KNYC, located 0 kilometers away from New York - Central Park, New York







STORIES FROM OUR PARTNERS